Regional Weather Roundup
Issued by NWS

Home | Current Version | Previous Version | Graphics & Text | Print | Product List | Glossary Off
Versions: 1 2 3 4 5 6 7 8 9 10 11 12 13 14 15 16 17 18 19 20 21 22 23 24 25 26 27 28 29 30 31 32 33 34 35 36 37 38 39 40 41 42 43 44 45 46 47 48 49 50

132
ASUS43 KTOP 220108
RWRKS

WEATHER ROUNDUP FOR KANSAS
NATIONAL WEATHER SERVICE GOODLAND KS
700 PM CST SUN JAN 21 2018

NOTE:  "FAIR" INDICATES FEW OR NO CLOUDS BELOW 12,000 FEET WITH NO
SIGNIFICANT WEATHER AND/OR OBSTRUCTIONS TO VISIBILITY.

KSZ001>006-013>018-027>032-041>047-220200-
NORTHWEST KANSAS

CITY           SKY/WX    TMP DP  RH WIND       PRES   REMARKS
GOODLAND       FOG       28  27  96 N32G41    29.71S VSB 3/4 WCI  12
HAYS           CLOUDY    37  37 100 N9        29.61F
HILL CITY      LGT RAIN  34  34 100 N9        29.65S FOG
RUSSELL        CLOUDY    41  41 100 NW10      29.59F FOG
$$

KSZ061>065-074>080-084>089-220200-
SOUTHWEST KANSAS

CITY           SKY/WX    TMP DP  RH WIND       PRES   REMARKS
DODGE CITY     CLOUDY    35  28  75 W8        29.63F
ELKHART        FLURRIES  33  31  96 NW20G29   29.75R WCI  21
GARDEN CITY    CLOUDY    33  31  92 NW17      29.63S WCI  22
GREAT BEND     CLEAR     32  30  92 NW7       29.62F
LIBERAL        CLOUDY    34  28  79 NW25G32   29.70R WCI  21
PRATT          MOCLDY    40  31  70 NW10      29.62R WCI  34
$$

KSZ066>073-081>083-090>101-220200-
SOUTHEAST KANSAS

CITY           SKY/WX    TMP DP  RH WIND       PRES   REMARKS
CHANUTE        CLEAR     60  52  74 S10       29.61S
COFFEYVILLE    CLEAR     61  55  81 S8        29.62S
HUTCHINSON     CLOUDY    46  36  68 NW15      29.62R
MEDICINE LODGE   N/A     57  31  37 NW12G18   29.61R
NEWTON         CLEAR     46  33  60 NW9       29.62R
PARSONS        CLEAR     62  56  80 S6        29.62S
WICHITA INTL   CLOUDY    52  35  52 NW9       29.58F
WICHITA JABRA  PTCLDY    52  38  58 W7        29.58F
WICHITA MCCONL PTCLDY    53  37  54 N6        29.58F
WINFIELD       CLEAR     56  45  66 SE7       29.58F
$$

KSZ007>012-019>026-033>040-048>060-102>105-220200-
NORTHEAST KANSAS

CITY           SKY/WX    TMP DP  RH WIND       PRES   REMARKS
CONCORDIA      MOCLDY    41  38  89 W3        29.63F
EMPORIA        MOCLDY    50  46  86 S8        29.60R
LAWRENCE       CLOUDY    57  50  77 E6        29.60F
MANHATTAN      PTCLDY    49  39  68 W13G18    29.63R
MARYSVILLE     CLOUDY    41  41 100 N8        29.61F FOG
OLATHE IND     PTCLDY    60  52  74 SE12      29.62F
OLATHE EXE     CLOUDY    57  52  83 SE5       29.61F
SALINA         MOCLDY    41  37  86 N5        29.62F
TOPEKA BILLARD CLOUDY    55  51  86 CALM      29.60S
TOPEKA FORBES  CLOUDY    57  51  80 CALM      29.61R
$$




USA.gov is the U.S. government's official web portal to all federal, state and local government web resources and services.